Погода в Взморье

Россия / Сахалинская область     47°51′03″N   142°30′55″E
темп.,
°C
ветер,
м/с
пор.,
м/с
влажн.,
%
обл.,
%
осадки,
мм/ч
давл.,
гПа
погр.,
м
18 мая, ср
ср1823:00+7зюз339189 0.0 101245
02:00+6зюз11945 0.0 101223
05:00+6юз119518 0.0 101219
08:00+8ю24869 0.0 1010195
11:00+14юз61456100 0.0 1010589
14:00+15юз71550100 0.0 1009760
17:00+14юз61251100 0.0 1008667
20:00+9юз2378100 0.0 1010195
19 мая, чт
чт1923:00+7зюз37895 0.1 1010172
02:00+7зюз35902 0.0 1010110
05:00+5зюз33880 0.0 101137
08:00+8зюз237217 0.0 1012139
11:00+13з354374 0.0 1012722
14:00+14ююв2446100 0.0 10111080
17:00+14ююз4743100 0.0 1009842
20:00+12ююз397265 0.0 1008352
20 мая, пт
пт2023:00+9зюз2684100 0.0 1009293
02:00+8ююз359199 0.0 1008126
05:00+8ююз2693100 0.0 1007223
08:00+10ююз2587100 0.0 1007355
11:00+10с1290100 0.2 1007516
14:00+9с2295100 0.6 1008237
17:00+4ссв249698 1.2 1010241
20:00+4в229692 0.0 1010198
21 мая, сб
сб2123:00+3вюв2398100 0.0 1011156
02:00+3в2398100 0.0 1012168
05:00+2вюв3498100 0.1 1011232
08:00+3вюв3498100 0.4 1011223
11:00+4юв3598100 1.9 1010245
14:00+6в3393100 0.0 1009190
17:00+8всв2889100 0.7 1007481
20:00+8ссв1788100 0.1 1006389
22 мая, вс
вс2223:00+5ссв1197100 0.2 1006102
02:00+5юв1198100 0.1 100642
05:00+5в1199100 0.1 100548
08:00+7всв1193100 0.0 100594
11:00+9всв2185100 0.0 1007374
14:00+11в2181100 0.0 1007350
17:00+10в228351 0.1 1009318
20:00+8вюв1295100 0.0 101097